Petawawa, Ontario

3:52 AM EDT on June 24, 2017 (GMT -0400)
Petawawa

Weather History for CYWA - August, 2012

Change the Weather History Date:

Saturday, August 4, 2012

  Actual Average Record
Temperature  
Mean Temperature 77 °F -  
Max Temperature 97 °F 74 °F 97 °F (2012)
Min Temperature 57 °F 50 °F 39 °F (1997)
Cooling Degree Days 12    
Growing Degree Days 27 (Base 50)    
Moisture  
Dew Point 63 °F    
Average Humidity 68    
Maximum Humidity 100    
Minimum Humidity 28    
Precipitation  
Precipitation 0.02 in 0.10 in - ()
Sea Level Pressure  
Sea Level Pressure 30.05 in    
Wind  
Wind Speed 4 mph ()    
Max Wind Speed 13 mph    
Max Gust Speed 18 mph    
Visibility 9.0 miles    
Events      
Averages and records for this station are not official NWS values.
T = Trace of Precipitation, MM = Missing Value Source: Averaged Metar Reports

Daily Weather History Graph

Daily Weather History Graph

Search for Another Location

Airport or City:

Trip Planner

Search our weather history database for the weather conditions in past years. The results will help you decide how hot, cold, wet, or windy it might be!

Date:

Astronomy

Aug. 04, 2012 Rise Set
Actual Time 5:55 AM EDT 8:33 PM EDT
Civil Twilight 5:21 AM EDT 9:07 PM EDT
Nautical Twilight 4:38 AM EDT 9:50 PM EDT
Astronomical Twilight 3:49 AM EDT 10:39 PM EDT
Moon 9:27 PM EDT (8/4) 8:53 AM EDT (8/4)
Length of Visible Light 15h 45m
Length of Day
14h 37m
Waning Gibbous, 92% of the Moon is Illuminated
Aug 4
Waning Gibbous
Aug 9
Last Quarter
Aug 17
New
Aug 24
First Quarter
Aug 31
Full

Hourly Weather History & Observations

Time (EDT) Temp. Heat Index Dew Point Humidity Pressure Visibility Wind Dir Wind Speed Gust Speed Precip Events Conditions
12:00 AM 62.6 °F - 59.0 °F 88% 30.11 in 9.0 mi Calm Calm - N/A   Scattered Clouds
1:00 AM 62.6 °F - 59.0 °F 88% 30.11 in 9.0 mi WNW 2.3 mph - N/A   Partly Cloudy
2:00 AM 59 °F - 58 °F 94% 30.11 in 9 mi WSW 2.3 mph - -  
2:00 AM 59.0 °F - 57.2 °F 94% 30.11 in 9.0 mi SSW 2.3 mph - N/A   Partly Cloudy
3:00 AM 60.8 °F - 59.0 °F 94% 30.12 in 9.0 mi Calm Calm - N/A   Mostly Cloudy
4:00 AM 59.0 °F - 59.0 °F 100% 30.13 in 9.0 mi WSW 2.3 mph - N/A   Mostly Cloudy
5:00 AM 60 °F - 58 °F 92% 30.12 in 9 mi South 2.3 mph - -  
5:00 AM 60.8 °F - 59.0 °F 94% 30.12 in 9.0 mi Calm Calm - N/A   Partly Cloudy
5:48 AM 59.0 °F - 57.2 °F 94% 30.11 in 9.0 mi Calm Calm - N/A   Light Drizzle
5:58 AM 60.8 °F - 59.0 °F 94% 30.11 in 9.0 mi Calm Calm - N/A   Clear
6:00 AM 60.8 °F - 59.0 °F 94% 30.12 in 9.0 mi Calm Calm - N/A   Clear
7:00 AM 60.8 °F - 59.0 °F 94% 30.12 in 9.0 mi Calm Calm - N/A   Clear
8:00 AM 68 °F - 60 °F 68% 30.13 in 9 mi East 3.5 mph - -  
8:00 AM 68.0 °F - 60.8 °F 78% 30.13 in 9.0 mi ESE 3.5 mph - N/A   Clear
9:00 AM 69.8 °F - 60.8 °F 73% 30.12 in 9.0 mi SE 3.5 mph - N/A   Clear
10:00 AM 73.4 °F - 62.6 °F 69% 30.11 in 9.0 mi SE 6.9 mph - N/A   Partly Cloudy
11:00 AM 77 °F - 64 °F 54% 30.10 in 9 mi SE 5.8 mph - -  
11:00 AM 77.0 °F - 64.4 °F 65% 30.10 in 9.0 mi SE 5.8 mph - N/A   Clear
12:00 PM 80.6 °F 82.3 °F 64.4 °F 58% 30.08 in 9.0 mi SE 6.9 mph - N/A   Clear
1:00 PM 84.2 °F 86.6 °F 66.2 °F 55% 30.05 in 9.0 mi ESE 8.1 mph - N/A   Partly Cloudy
2:00 PM 89 °F - 69 °F 42% 30.01 in 9 mi ESE 8.1 mph - -  
2:00 PM 87.8 °F 92.6 °F 69.8 °F 55% 30.01 in 9.0 mi ESE 8.1 mph - N/A   Clear
3:00 PM 89.6 °F 93.4 °F 68.0 °F 49% 30.00 in 9.0 mi ESE 6.9 mph - N/A   Partly Cloudy
4:00 PM 95.0 °F 98.5 °F 66.2 °F 39% 29.97 in 9.0 mi SSW 10.4 mph - N/A   Scattered Clouds
5:00 PM 96 °F - 66 °F 28% 29.95 in 9 mi South 9.2 mph - -  
5:00 PM 96.8 °F 100.7 °F 66.2 °F 37% 29.95 in 9.0 mi South 12.7 mph - N/A   Partly Cloudy
6:00 PM 95.0 °F 98.5 °F 66.2 °F 39% 29.93 in 9.0 mi South 11.5 mph 18.4 mph N/A   Partly Cloudy
7:00 PM 93.2 °F 96.2 °F 66.2 °F 41% 29.92 in 9.0 mi South 10.4 mph - N/A   Partly Cloudy
8:00 PM 90 °F - 66 °F 36% 29.93 in 9 mi South 10.4 mph - -  
8:00 PM 89.6 °F 92.2 °F 66.2 °F 46% 29.93 in 9.0 mi South 11.5 mph - N/A   Clear
9:00 PM 87.8 °F 91.4 °F 68.0 °F 52% 29.94 in 9.0 mi South 9.2 mph - N/A   Clear
10:00 PM 84.2 °F 88.4 °F 69.8 °F 62% 29.94 in 9.0 mi SE 5.8 mph - N/A   Clear
11:00 PM 81 °F - 69 °F 60% 29.92 in 9 mi SE 5.8 mph - -  
11:00 PM 80.6 °F 83.9 °F 69.8 °F 70% 29.92 in 9.0 mi SE 5.8 mph - N/A   Clear